TimeEDT,TemperatureF,Dew PointF,Humidity,Sea Level PressureIn,VisibilityMPH,Wind Direction,Wind SpeedMPH,Gust SpeedMPH,PrecipitationIn,Events,Conditions,WindDirDegrees,DateUTC
12:54 AM,62.1,60.1,93,29.73,-9999.0,Calm,Calm,-,0.31,,Unknown,0,2013-05-24 04:54:00
1:54 AM,62.1,60.1,93,29.72,-9999.0,Calm,Calm,-,0.01,,Unknown,0,2013-05-24 05:54:00
2:54 AM,62.1,60.1,93,29.70,-9999.0,Calm,Calm,-,N/A,,Unknown,0,2013-05-24 06:54:00
3:54 AM,61.0,60.1,97,29.70,-9999.0,Calm,Calm,-,N/A,,Unknown,0,2013-05-24 07:54:00
4:54 AM,62.1,60.1,93,29.71,-9999.0,Calm,Calm,-,N/A,,Unknown,0,2013-05-24 08:54:00
5:54 AM,62.1,60.1,93,29.71,-9999.0,Calm,Calm,-,N/A,,Unknown,0,2013-05-24 09:54:00
6:54 AM,62.1,60.1,93,29.73,-9999.0,Calm,Calm,-,N/A,,Unknown,0,2013-05-24 10:54:00
7:54 AM,61.0,57.9,90,29.75,-9999.0,North,12.7,24.2,N/A,,Unknown,360,2013-05-24 11:54:00
8:54 AM,53.1,48.9,86,29.82,-9999.0,NNW,4.6,-,N/A,,Unknown,340,2013-05-24 12:54:00
9:54 AM,50.0,44.1,80,29.85,-9999.0,NNW,6.9,-,N/A,,Unknown,340,2013-05-24 13:54:00
10:54 AM,48.9,44.1,83,29.87,-9999.0,Variable,5.8,-,0.01,,Unknown,0,2013-05-24 14:54:00
11:54 AM,48.0,43.0,83,29.87,-9999.0,North,10.4,-,0.05,,Unknown,360,2013-05-24 15:54:00
12:54 PM,48.0,44.1,86,29.89,-9999.0,North,6.9,-,0.05,,Unknown,360,2013-05-24 16:54:00
1:54 PM,48.0,44.1,86,29.89,-9999.0,North,8.1,-,0.04,,Unknown,350,2013-05-24 17:54:00
2:54 PM,48.0,43.0,83,29.90,-9999.0,Variable,5.8,-,0.03,,Unknown,0,2013-05-24 18:54:00
3:54 PM,48.0,44.1,86,29.91,-9999.0,NNW,8.1,17.3,0.05,,Unknown,340,2013-05-24 19:54:00
4:54 PM,46.9,41.0,80,29.92,-9999.0,Variable,5.8,16.1,0.01,,Unknown,0,2013-05-24 20:54:00
5:54 PM,46.0,39.0,76,29.93,-9999.0,North,10.4,19.6,N/A,,Unknown,360,2013-05-24 21:54:00
6:54 PM,46.0,37.9,73,29.95,-9999.0,NNW,9.2,-,N/A,,Unknown,340,2013-05-24 22:54:00
7:54 PM,46.0,37.9,73,29.97,-9999.0,NNW,8.1,18.4,N/A,,Unknown,330,2013-05-24 23:54:00
8:54 PM,44.1,39.0,82,29.98,-9999.0,North,8.1,-,0.03,,Unknown,350,2013-05-25 00:54:00
9:54 PM,44.1,39.0,82,29.99,-9999.0,North,8.1,-,0.09,,Unknown,360,2013-05-25 01:54:00
10:54 PM,43.0,39.0,86,30.00,-9999.0,North,10.4,-,0.05,,Unknown,360,2013-05-25 02:54:00
11:54 PM,43.0,39.0,86,30.00,-9999.0,Variable,6.9,-,0.05,,Unknown,0,2013-05-25 03:54:00